• In Romania
  • List of Countries
  • For 7 days
  • Water Temperature
  • Satellite Maps
  • Weather Map
  • Weather Widgets
  • user-avatar
    Login

    Hourly Weather Primorsko

    Today, 19 September, Wednesday

    Time Temperature Precipitation Wind Pressure Humidity
    00:00 +17°C° 0 mm 4 mps 766 mmHg 84%
    01:00 +17°C° 0 mm 4 mps 766 mmHg 86%
    02:00 +17°C° 0 mm 4 mps 766 mmHg 87%
    03:00 +17°C° 0 mm 4 mps 766 mmHg 87%
    04:00 +17°C° 0 mm 4 mps 766 mmHg 88%
    05:00 +17°C° 0 mm 4 mps 766 mmHg 88%
    06:00 +18°C° 0 mm 4 mps 766 mmHg 82%
    07:00 +19°C° 0 mm 5 mps 766 mmHg 75%
    08:00 +21°C° 0 mm 5 mps 766 mmHg 68%
    09:00 +22°C° 0 mm 5 mps 766 mmHg 63%
    10:00 +23°C° 0 mm 5 mps 766 mmHg 58%
    11:00 +24°C° 0 mm 6 mps 766 mmHg 53%
    12:00 +26°C° 0 mm 6 mps 766 mmHg 53%
    13:00 +26°C° 0 mm 6 mps 765 mmHg 53%
    14:00 +26°C° 0 mm 6 mps 765 mmHg 53%
    15:00 +24°C° 0 mm 6 mps 765 mmHg 56%
    16:00 +24°C° 0 mm 6 mps 765 mmHg 58%
    17:00 +23°C° 0 mm 6 mps 765 mmHg 61%
    18:00 +21°C° 0 mm 6 mps 765 mmHg 67%
    19:00 +20°C° 0 mm 5 mps 765 mmHg 73%
    20:00 +19°C° 0 mm 5 mps 765 mmHg 79%
    21:00 +17°C° 0 mm 5 mps 765 mmHg 81%
    22:00 +18°C° 0 mm 4 mps 765 mmHg 82%
    23:00 +18°C° 0 mm 4 mps 765 mmHg 84%

    Tomorrow, 20 September, Thursday

    Time Temperature Precipitation Wind Pressure Humidity
    00:00 +17°C° 0 mm 4 mps 765 mmHg 85%
    01:00 +17°C° 0 mm 4 mps 765 mmHg 87%
    02:00 +17°C° 0 mm 4 mps 765 mmHg 88%
    03:00 +17°C° 0 mm 4 mps 764 mmHg 89%
    04:00 +15°C° 0 mm 4 mps 764 mmHg 90%
    05:00 +15°C° 0 mm 4 mps 764 mmHg 90%
    06:00 +17°C° 0 mm 5 mps 764 mmHg 85%
    07:00 +19°C° 0 mm 5 mps 764 mmHg 79%
    08:00 +21°C° 0 mm 5 mps 764 mmHg 73%
    09:00 +22°C° 0 mm 6 mps 764 mmHg 67%
    10:00 +24°C° 0 mm 6 mps 764 mmHg 62%
    11:00 +26°C° 0 mm 6 mps 764 mmHg 56%
    12:00 +27°C° 0 mm 6 mps 764 mmHg 55%
    13:00 +27°C° 0 mm 6 mps 763 mmHg 53%
    14:00 +28°C° 0 mm 6 mps 763 mmHg 52%
    15:00 +27°C° 0 mm 6 mps 763 mmHg 55%
    16:00 +26°C° 0 mm 6 mps 763 mmHg 58%
    17:00 +24°C° 0 mm 6 mps 763 mmHg 61%
    18:00 +23°C° 0 mm 5 mps 763 mmHg 70%
    19:00 +21°C° 0 mm 5 mps 763 mmHg 78%
    20:00 +20°C° 0 mm 5 mps 763 mmHg 86%
    21:00 +20°C° 0 mm 4 mps 763 mmHg 87%
    22:00 +19°C° 0 mm 4 mps 763 mmHg 89%
    23:00 +19°C° 0 mm 4 mps 763 mmHg 90%

    Day after tomorrow, 21 September, Friday

    Time Temperature Precipitation Wind Pressure Humidity
    00:00 +19°C° 0 mm 4 mps 763 mmHg 91%
    01:00 +19°C° 0 mm 4 mps 763 mmHg 92%
    02:00 +18°C° 0 mm 4 mps 763 mmHg 93%
    03:00 +18°C° 0 mm 4 mps 763 mmHg 93%
    04:00 +18°C° 0 mm 4 mps 763 mmHg 93%
    05:00 +18°C° 0 mm 4 mps 763 mmHg 93%
    06:00 +19°C° 0 mm 4 mps 763 mmHg 87%
    07:00 +20°C° 0 mm 4 mps 763 mmHg 81%
    08:00 +21°C° 0 mm 4 mps 763 mmHg 75%
    09:00 +23°C° 0 mm 5 mps 763 mmHg 66%
    10:00 +26°C° 0 mm 5 mps 763 mmHg 58%
    11:00 +28°C° 0 mm 5 mps 763 mmHg 49%
    12:00 +28°C° 0 mm 5 mps 763 mmHg 48%
    13:00 +29°C° 0 mm 5 mps 763 mmHg 46%
    14:00 +29°C° 0 mm 5 mps 762 mmHg 45%
    15:00 +28°C° 0 mm 5 mps 762 mmHg 49%
    16:00 +27°C° 0 mm 4 mps 762 mmHg 52%
    17:00 +26°C° 0 mm 4 mps 762 mmHg 56%
    18:00 +25°C° 0 mm 4 mps 762 mmHg 66%
    19:00 +22°C° 0 mm 3 mps 762 mmHg 75%
    20:00 +20°C° 0 mm 3 mps 763 mmHg 85%
    21:00 +20°C° 0 mm 3 mps 763 mmHg 86%
    22:00 +20°C° 0 mm 2 mps 763 mmHg 88%
    23:00 +20°C° 0 mm 2 mps 763 mmHg 89%

    22 September, Saturday

    Time Temperature Precipitation Wind Pressure Humidity
    00:00 +20°C° 0 mm 2 mps 763 mmHg 89%
    01:00 +19°C° 0 mm 2 mps 763 mmHg 90%
    02:00 +19°C° 0 mm 2 mps 762 mmHg 90%
    03:00 +19°C° 0 mm 2 mps 762 mmHg 90%
    04:00 +19°C° 0 mm 2 mps 762 mmHg 90%
    05:00 +19°C° 0 mm 2 mps 762 mmHg 90%
    06:00 +20°C° 0 mm 2 mps 762 mmHg 84%
    07:00 +21°C° 0 mm 2 mps 762 mmHg 77%
    08:00 +23°C° 0 mm 2 mps 762 mmHg 71%
    09:00 +25°C° 0 mm 2 mps 762 mmHg 61%
    10:00 +27°C° 0 mm 2 mps 762 mmHg 52%
    11:00 +29°C° 0 mm 3 mps 762 mmHg 42%
    12:00 +29°C° 0 mm 3 mps 762 mmHg 40%
    13:00 +30°C° 0 mm 3 mps 762 mmHg 37%
    14:00 +30°C° 0 mm 3 mps 761 mmHg 35%
    15:00 +30°C° 0 mm 3 mps 761 mmHg 39%
    16:00 +29°C° 0 mm 3 mps 761 mmHg 43%
    17:00 +28°C° 0 mm 3 mps 761 mmHg 46%
    18:00 +26°C° 0 mm 2 mps 761 mmHg 55%
    19:00 +23°C° 0 mm 2 mps 761 mmHg 64%
    20:00 +20°C° 0 mm 2 mps 761 mmHg 73%
    21:00 +21°C° 0 mm 1 mps 761 mmHg 73%
    22:00 +21°C° 0 mm 1 mps 761 mmHg 73%
    23:00 +20°C° 0 mm 1 mps 761 mmHg 72%

    23 September, Sunday

    Time Temperature Precipitation Wind Pressure Humidity
    00:00 +20°C° 0 mm 1 mps 761 mmHg 71%
    01:00 +20°C° 0 mm 1 mps 761 mmHg 70%
    02:00 +20°C° 0 mm 1 mps 761 mmHg 68%
    03:00 +20°C° 0 mm 1 mps 761 mmHg 68%
    04:00 +19°C° 0 mm 2 mps 761 mmHg 67%
    05:00 +19°C° 0 mm 2 mps 761 mmHg 67%
    06:00 +20°C° 0 mm 2 mps 761 mmHg 63%
    07:00 +23°C° 0 mm 2 mps 762 mmHg 58%
    08:00 +25°C° 0 mm 2 mps 762 mmHg 54%
    09:00 +27°C° 0 mm 2 mps 762 mmHg 47%
    10:00 +29°C° 0 mm 2 mps 762 mmHg 40%
    11:00 +31°C° 0 mm 2 mps 762 mmHg 33%
    12:00 +33°C° 0 mm 3 mps 762 mmHg 32%
    13:00 +33°C° 0 mm 3 mps 762 mmHg 30%
    14:00 +34°C° 0 mm 3 mps 762 mmHg 29%
    15:00 +33°C° 0 mm 4 mps 762 mmHg 33%
    16:00 +30°C° 0 mm 6 mps 762 mmHg 37%
    17:00 +29°C° 0 mm 7 mps 762 mmHg 41%
    18:00 +27°C° 0 mm 7 mps 763 mmHg 55%
    19:00 +23°C° 0 mm 7 mps 763 mmHg 69%
    20:00 +21°C° 0 mm 6 mps 763 mmHg 82%
    21:00 +20°C° 0 mm 6 mps 763 mmHg 84%
    22:00 +20°C° 0 mm 5 mps 763 mmHg 86%
    23:00 +20°C° 0 mm 5 mps 764 mmHg 88%

    24 September, Monday

    Time Temperature Precipitation Wind Pressure Humidity
    00:00 +20°C° 0 mm 4 mps 763 mmHg 90%
    01:00 +19°C° 0 mm 4 mps 763 mmHg 91%
    02:00 +19°C° 0 mm 3 mps 763 mmHg 92%
    03:00 +19°C° 0 mm 3 mps 763 mmHg 92%
    04:00 +19°C° 0 mm 3 mps 762 mmHg 93%
    05:00 +19°C° 0 mm 3 mps 762 mmHg 93%
    06:00 +20°C° 0 mm 3 mps 762 mmHg 89%
    07:00 +21°C° 0 mm 3 mps 762 mmHg 84%
    08:00 +22°C° 0 mm 4 mps 762 mmHg 79%
    09:00 +25°C° 0 mm 4 mps 762 mmHg 71%
    10:00 +27°C° 0 mm 4 mps 761 mmHg 62%
    11:00 +29°C° 0 mm 4 mps 761 mmHg 54%
    12:00 +29°C° 0 mm 4 mps 760 mmHg 52%
    13:00 +30°C° 0 mm 5 mps 760 mmHg 51%
    14:00 +30°C° 0 mm 5 mps 759 mmHg 49%
    15:00 +29°C° 0 mm 5 mps 759 mmHg 54%
    16:00 +28°C° 0 mm 5 mps 758 mmHg 59%
    17:00 +27°C° 0 mm 5 mps 758 mmHg 65%
    18:00 +25°C° 0 mm 5 mps 758 mmHg 73%
    19:00 +22°C° 0 mm 4 mps 758 mmHg 81%
    20:00 +20°C° 0 mm 4 mps 758 mmHg 89%
    21:00 +20°C° 0 mm 3 mps 757 mmHg 90%
    22:00 +20°C° 0 mm 3 mps 757 mmHg 90%
    23:00 +19°C° 0 mm 2 mps 757 mmHg 91%
    Show more